Weather History for PAGY - April, 2014

Change the Weather History Date:

Saturday, April 26, 2014

  Actual Average Record
Temperature  
Mean Temperature 45 °F -  
Max Temperature 57 °F 50 °F 75 °F (2003)
Min Temperature 33 °F 35 °F 22 °F (1984)
Degree Days  
Heating Degree Days 20    
Moisture  
Dew Point 28 °F    
Average Humidity 55    
Maximum Humidity 78    
Minimum Humidity 23    
Precipitation  
Precipitation 0.00 in - - ()
Sea Level Pressure  
Sea Level Pressure 29.55 in    
Wind  
Wind Speed 6 mph (North)    
Max Wind Speed 22 mph    
Max Gust Speed 24 mph    
Visibility 10 miles    
Events      
Averages and records for this station are not official NWS values.
T = Trace of Precipitation, MM = Missing Value Source: NWS Daily Summary

Daily Weather History Graph

Daily Weather History Graph

Search for Another Location

Airport or City:

Trip Planner

Search our weather history database for the weather conditions in past years. The results will help you decide how hot, cold, wet, or windy it might be!

Date:

Astronomy

Apr. 26, 2014 Rise Set
Actual Time 5:14 AM AKDT 8:44 PM AKDT
Civil Twilight 4:25 AM AKDT 9:34 PM AKDT
Nautical Twilight 3:14 AM AKDT 10:46 PM AKDT
Astronomical Twilight 1:31 AM AKDT 12:26 AM AKDT
Moon 4:26 AM AKDT (4/26) 5:46 PM AKDT (4/26)
Length of Visible Light 17h 09m
Length of Day
15h 30m
Waning Crescent, 7% of the Moon is Illuminated
Apr 26
Waning Crescent
Apr 28
New
May 6
First Quarter
May 14
Full
May 21
Last Quarter

Hourly Weather History & Observations

Time (AKDT) Temp. Windchill Dew Point Humidity Pressure Visibility Wind Dir Wind Speed Gust Speed Precip Events Conditions
12:53 AM 36.0 °F - 27.0 °F 70% 29.68 in 10.0 mi Calm Calm - N/A   Clear
1:53 AM 35.1 °F 32.2 °F 27.0 °F 72% 29.68 in 10.0 mi NNE 3.5 mph - N/A   Clear
2:53 AM 35.1 °F - 26.1 °F 70% 29.66 in 10.0 mi Calm Calm - N/A   Partly Cloudy
3:53 AM 34.0 °F 31.0 °F 26.1 °F 73% 29.65 in 10.0 mi NNE 3.5 mph - N/A   Clear
4:53 AM 33.1 °F 28.7 °F 27.0 °F 78% 29.63 in 10.0 mi NE 4.6 mph - N/A   Overcast
5:53 AM 36.0 °F - 28.0 °F 73% 29.63 in 10.0 mi Calm Calm - N/A   Overcast
6:53 AM 37.9 °F - 28.9 °F 70% 29.61 in 10.0 mi Calm Calm - N/A   Overcast
7:53 AM 46.0 °F 43.9 °F 28.0 °F 50% 29.58 in 10.0 mi North 4.6 mph - N/A   Scattered Clouds
8:53 AM 50.0 °F - 18.0 °F 28% 29.56 in 10.0 mi NE 13.8 mph 24.2 mph N/A   Scattered Clouds
9:53 AM 53.1 °F - 19.0 °F 26% 29.54 in 10.0 mi NNE 17.3 mph 23.0 mph N/A   Mostly Cloudy
10:53 AM 55.0 °F - 19.9 °F 25% 29.53 in 10.0 mi NE 12.7 mph - N/A   Overcast
11:53 AM 57.0 °F - 19.0 °F 23% 29.52 in 10.0 mi NE 5.8 mph - N/A   Mostly Cloudy
12:53 PM 57.9 °F - 19.9 °F 23% 29.51 in 10.0 mi Variable 3.5 mph - N/A   Overcast
1:24 PM 48.0 °F - 33.1 °F 56% 29.51 in 10.0 mi SSW 19.6 mph - N/A   Overcast
1:53 PM 48.9 °F - 34.0 °F 56% 29.52 in 10.0 mi SSW 20.7 mph - N/A   Mostly Cloudy
2:53 PM 51.1 °F - 30.9 °F 46% 29.51 in 10.0 mi SSW 21.9 mph - N/A   Partly Cloudy
3:53 PM 50.0 °F - 32.0 °F 50% 29.49 in 10.0 mi SSW 20.7 mph - N/A   Clear
4:53 PM 50.0 °F - 35.1 °F 57% 29.48 in 10.0 mi SW 19.6 mph - N/A   Partly Cloudy
5:53 PM 50.0 °F - 35.1 °F 57% 29.47 in 10.0 mi SW 17.3 mph - N/A   Clear
6:53 PM 48.9 °F - 33.1 °F 54% 29.48 in 10.0 mi WSW 12.7 mph - N/A   Clear
7:53 PM 48.9 °F - 32.0 °F 52% 29.49 in 10.0 mi West 4.6 mph - N/A   Clear
8:53 PM 45.0 °F - 32.0 °F 60% 29.49 in 10.0 mi Calm Calm - N/A   Clear
9:53 PM 42.1 °F - 30.9 °F 65% 29.49 in 10.0 mi Calm Calm - N/A   Clear
10:53 PM 39.9 °F 36.7 °F 30.0 °F 68% 29.48 in 10.0 mi NE 4.6 mph - N/A   Clear
11:53 PM 39.0 °F - 30.0 °F 70% 29.49 in 10.0 mi Calm Calm - N/A   Overcast